Regional Weather Roundup
Issued by NWS State College, PA

Home | Current Version | Previous Version | Text Only | Print | Product List | Glossary On
Versions: 1 2 3 4 5 6 7 8 9 10 11 12 13 14 15 16 17 18 19 20 21 22 23 24 25 26 27 28 29 30 31 32 33 34 35 36 37 38 39 40 41 42 43 44 45 46 47 48 49 50
000
ASUS41 KCTP 192110
RWRCTP

REGIONAL WEATHER ROUNDUP
NATIONAL WEATHER SERVICE STATE COLLEGE PA
500 PM EDT THU APR 19 2018

Note: "fair" indicates few or no clouds below 12,000 feet with no
significant weather and/or obstructions to visibility.

* = STATION THAT DOES NOT REPORT PRECIPITATION /E.G. RAIN...SNOW...ETC/
    THUNDER OR FOG.

PAZ002>004-007>009-013>016-020>023-029>032-192200-
WESTERN PENNSYLVANIA

CITY           SKY/WX    TMP DP  RH WIND       PRES   REMARKS
ERIE           CLOUDY    36  27  69 W18G29    30.14R
MEADVILLE      CLOUDY    34  24  67 W20G33    30.10R
FRANKLIN*      CLOUDY    36  24  62 NW16G29   30.08R
NEW CASTLE     CLOUDY    41  25  53 NW20G25   30.13R
BEAVER COUNTY  CLOUDY    41  27  56 NW14G21   30.10R
BUTLER*        CLOUDY    39  25  57 NW12G23   30.09R
PITTSBURGH INT PTSUNNY   42  27  55 NW23G31   30.09S
PITTSBURGH     CLOUDY    39  27  62 NW14G31   30.09R
INDIANA*       CLOUDY    37  28  70 NW15G23   30.09R
LATROBE        CLOUDY    37  28  70 NW12G23   30.08S
WASHINGTON CO* PTSUNNY   41  27  57 NW16      30.14R
$$

PAZ004>006-010>012-017>019-024>028-033>037-041-042-045-046-049>053-192200-
CENTRAL PENNSYLVANIA

CITY           SKY/WX    TMP DP  RH WIND       PRES   REMARKS
BRADFORD       CLOUDY    32  24  72 NW22G32   29.96R
DUBOIS         CLOUDY    33  26  75 NW17G26   30.00R
CLEARFIELD     CLOUDY    35  24  64 NW10G22   30.01R
JOHNSTOWN      CLOUDY    32  26  78 W15G29    29.99R
ALTOONA        CLOUDY    37  26  64 NW16G24   30.01R
STATE COLLEGE  PTSUNNY   36  25  64 NW15G29   29.99R
WILLIAMSPORT   FLURRIES  39  24  55 W20G31    29.96R
SELINSGROVE    CLOUDY    42  25  50 NW22G33   29.96R
FT INDIANTOWN  CLOUDY    43  28  55 W13G23    29.93R
CAPITAL CITY   CLOUDY    45  28  51 W20G32    29.96R
HARRISBURG     CLOUDY    44  29  55 NW26G33   29.95R
YORK           CLOUDY    44  29  55 NW13G26   29.96R
$$

PAZ038>040-043-044-047-048-054-055-060>062-067>071-192200-
EASTERN PENNSYLVANIA

CITY           SKY/WX    TMP DP  RH WIND       PRES   REMARKS
SCRANTON       LGT RAIN  39  30  70 NW20G28   29.88R
MOUNT POCONO   LGT SNOW  33  27  78 NW20G28   29.80R
ALLENTOWN      CLOUDY    43  31  62 NW13      29.87R
QUAKERTOWN*    CLOUDY    43  34  70 W12       29.87R
READING        CLOUDY    44  31  60 NW20      29.90R
LANCASTER      CLOUDY    45  30  55 NW17G25   29.92R
COATESVILLE    CLOUDY    43  30  61 NW20G33   29.90R
POTTSTOWN      CLOUDY    43  30  60 NW13G22   29.89R
BLUE BELL      CLOUDY    43  32  65 W10G21    29.89R
DOYLESTOWN     CLOUDY    42  33  70 NW10G23   29.85R
WILLOW GROVE   NOT AVBL
NORTH PHILA    PTSUNNY   49  35  58 NW15G23   29.88R
PHILADELPHIA   CLOUDY    47  30  51 NW23G30   29.88R
$$




USA.gov is the U.S. government's official web portal to all federal, state and local government web resources and services.